CST,Max TemperatureF,Mean TemperatureF,Min TemperatureF,Max Dew PointF,MeanDew PointF,Min DewpointF,Max Humidity, Mean Humidity, Min Humidity, Max Sea Level PressureIn, Mean Sea Level PressureIn, Min Sea Level PressureIn, Max VisibilityMiles, Mean VisibilityMiles, Min VisibilityMiles, Max Wind SpeedMPH, Mean Wind SpeedMPH, Max Gust SpeedMPH,PrecipitationIn, CloudCover, Events, WindDirDegrees
2012-11-1,28,26,23,28,26,23,100,98,86,30.14,30.06,29.99,10,9,0,18,11,24,0.00,6,Fog,100
2012-11-2,28,26,24,28,27,25,100,99,93,30.09,30.03,30.00,10,6,1,18,11,20,0.17,8,Snow,135
2012-11-3,30,27,24,30,26,25,100,99,93,30.21,30.17,30.09,10,9,2,12,4,,0.20,8,Snow,48
2012-11-4,33,30,26,34,30,27,100,100,100,30.21,30.10,30.03,10,5,0,15,10,18,0.01,8,Fog-Rain,183
2012-11-5,46,39,32,46,35,28,100,98,70,30.20,29.96,29.72,10,8,0,25,12,41,0.00,6,Fog-Rain,249
2012-11-6,46,37,24,32,30,25,100,81,57,30.09,30.04,29.91,10,10,10,22,14,28,0.00,1,,292
2012-11-7,53,38,24,46,33,25,100,77,41,30.04,29.79,29.64,10,10,10,22,8,28,0.04,3,Rain,187
2012-11-8,44,34,24,43,30,25,100,95,87,30.16,30.04,29.79,10,9,0,22,13,34,1.06,7,Snow,23
2012-11-9,24,20,15,25,20,16,100,98,93,30.14,30.03,29.91,10,8,0,24,17,36,2.67,8,Rain-Snow,79
2012-11-10,17,14,10,16,14,9,100,95,86,29.91,29.81,29.75,10,7,0,18,13,28,5.24,8,Rain-Snow,360
2012-11-11,14,8,3,10,7,-2,92,88,72,29.95,29.82,29.74,10,6,0,30,20,40,2.73,7,Rain-Snow,304
2012-11-12,21,10,0,18,5,-4,93,85,78,30.07,30.04,29.97,10,10,10,21,13,28,0.00,1,,258
2012-11-13,32,21,10,25,19,9,100,91,75,30.11,30.09,30.06,10,8,0,9,4,,0.00,3,Fog,240
2012-11-14,35,22,10,32,23,10,100,95,75,30.10,30.01,29.94,10,8,0,18,6,24,0.00,1,Fog,253
2012-11-15,32,20,8,25,20,7,100,89,64,30.36,30.26,30.11,10,10,10,16,9,22,0.00,0,,222
2012-11-16,37,30,24,32,28,25,100,93,75,30.18,30.00,29.93,10,10,10,15,9,21,0.00,0,,195
2012-11-17,39,32,24,32,29,25,100,94,70,30.03,29.98,29.93,10,10,10,8,4,,0.00,2,,172
2012-11-18,39,29,19,36,30,19,100,96,87,29.93,29.84,29.75,10,10,10,14,5,16,0.00,0,,148
2012-11-19,41,32,24,32,28,23,100,83,61,30.10,30.03,29.92,10,10,10,17,9,22,0.00,1,,223
2012-11-20,44,38,32,36,31,27,100,79,61,29.96,29.87,29.83,10,10,10,14,8,,0.00,0,,208
2012-11-21,44,38,32,37,34,32,100,93,71,29.83,29.69,29.57,10,9,1,18,4,26,0.00,3,,67
2012-11-22,32,21,10,32,17,7,100,92,85,30.43,30.08,29.71,10,9,1,23,16,31,0.70,7,Rain-Snow,314
2012-11-23,21,12,3,18,8,0,93,86,73,30.47,30.36,30.06,10,10,10,16,10,21,0.01,5,Snow,259
2012-11-24,35,26,17,34,23,18,100,91,74,30.04,29.86,29.75,10,10,10,24,14,34,0.00,5,Rain-Snow,266
2012-11-25,24,12,0,25,9,-4,100,86,67,30.27,30.07,29.91,10,10,5,22,13,31,0.14,3,Snow,320
2012-11-26,28,13,-2,25,13,-6,100,90,78,30.28,30.19,30.08,10,9,0,23,9,28,0.04,4,Fog-Snow,258
2012-11-27,24,19,14,25,20,14,100,100,100,30.18,30.11,30.05,10,6,0,12,5,,0.00,8,Fog-Snow,291
2012-11-28,30,22,14,30,21,14,100,98,80,30.15,30.04,29.99,10,8,0,18,8,17,0.00,4,Fog,142
2012-11-29,17,12,8,18,10,5,100,87,73,30.07,30.02,29.98,10,9,1,22,13,28,0.00,8,Snow,110
2012-11-30,32,24,15,30,23,14,100,93,80,30.01,29.80,29.61,10,8,0,20,13,23,0.00,6,Fog,158